AirNav   Air Wisconsin Up To $57,000 Bonus
 
 1084 users online  

9GA1 Briar Patch Airport
Clyo, Georgia, USA

GOING TO CLYO?


FAA INFORMATION EFFECTIVE 25 FEBRUARY 2021

Location

FAA Identifier: 9GA1
Lat/Long: 32-26-56.0000N 081-20-13.0000W
32-26.933333N 081-20.216667W
32.4488889,-81.3369444
(estimated)
Elevation: 100 ft. / 30 m (estimated)
Variation: 05W (1995)
From city: 4 miles SW of CLYO, GA
Time zone: UTC -5 (UTC -4 during Daylight Saving Time)
Zip code: 31303

Airport Operations

Airport use: Private use. Permission required prior to landing
Activation date: 02/1998
Control tower: no
ARTCC: JACKSONVILLE CENTER
FSS: MACON FLIGHT SERVICE STATION
Attendance: UNATNDD
Wind indicator: yes
Segmented circle: no

Airport Communications

WX AWOS-3 at JYL (18 nm NW): 118.875 (912-857-9000)

Nearby radio navigation aids

VOR radial/distance  VOR name  Freq  Var
SAVr345/19.5SAVANNAH VORTAC115.9506W
SVNr341/28.0HUNTER VOR/DME111.6002W
ALDr185/(33.9)ALLENDALE VOR116.7001W

 
NDB name  Hdg/Dist  Freq  Var  ID
SYLVANIA140/17.724507WJYL .--- -.-- .-..
MC INTOSH017/38.126304WMOQ -- --- --.-

Airport Services

Runway Information

Runway 16/34

Dimensions: 2600 x 100 ft. / 792 x 30 m
Surface: turf, in good condition
RUNWAY 16  RUNWAY 34
Traffic pattern: leftleft

Airport Ownership and Management from official FAA records

Ownership: Privately-owned
Owner: TIM O'NEILL
547 GREEN MORGAN SCHOOL ROAD
CLYO, GA 31303
Phone (912) 754-7547
Manager: TIM O'NEILL
547 GREEN MORGAN SCHOOL ROAD
CLYO, GA 31303
Phone (912) 754-7547

Airport Operational Statistics

Aircraft based on the field: 7
Single engine airplanes: 3
Ultralights: 4
    

Additional Remarks

FOR CD CTC SAVANNAH APCH AT 912-964-3205, WHEN APCH CLSD CTC JACKSONVILLE ARTCC AT 904-845-1592.

Instrument Procedures

There are no published instrument procedures at 9GA1.

Some nearby airports with instrument procedures:

KJYL - Plantation Airpark (18 nm NW)
KTBR - Statesboro-Bulloch County Airport (20 nm W)
KSAV - Savannah/Hilton Head International Airport (20 nm S)
KSVN - Hunter Army Airfield (28 nm S)
KCWV - Claxton-Evans County Airport (31 nm SW)
 
Loc | Ops | Rwys | IFR | FBO | Links
Com | Nav | Svcs | Stats | Notes
Area around 9GA1 (Briar Patch Airport)
 
Road maps at: MapQuest Bing Google
 
Aerial photo
WARNING: Photo may not be current or correct
Aerial photo of 9GA1 (Briar Patch Airport)
Photo taken 20-Aug-2005

Do you have a better or more recent aerial photo of Briar Patch Airport that you would like to share? If so, please send us your photo.

 
Sectional chart

 
Airport distance calculator
Flying to Briar Patch Airport? Find the distance to fly.

From to 9GA1

Sunrise and sunset
Times for 07-Mar-2021
 Local
(UTC-5)
 Zulu
(UTC)
Morning civil twilight06:2211:22
Sunrise06:4711:47
Sunset18:2623:26
Evening civil twilight18:5123:51

Current date and time
Zulu (UTC)  07-Mar-2021 16:38:10
Local (UTC-5)  07-Mar-2021 11:38:10
 
METAR
KJYL 
18nm NW 
071615Z AUTO 08007KT 10SM CLR 12/M05 A3035 RMK AO2 T01231050
KTBR 
20nm W 
071615Z AUTO 02008KT 340V060 10SM CLR 12/M04 A3034 RMK AO2 T01231036
KSAV 
21nm S 
071553Z 01008KT 10SM CLR 16/M03 A3031 RMK AO2 SLP264 T01561028
KSVN 
28nm S 
071556Z AUTO 35006KT 10SM CLR 15/M05 A3028 RMK AO2 SLP257 T01531046 $
KCWV 
31nm SW 
071615Z AUTO 00000KT 10SM CLR 15/M01 A3034 RMK AO2 T01501011
KNBC 
31nm E 
071556Z AUTO 01009KT 10SM CLR 13/M02 A3032 RMK AO2 SLP268 T01331022
KAQX 
33nm N 
071615Z AUTO 03006G19KT 10SM CLR 12/M09 A3035 RMK AO2
KHXD 
35nm E 
071550Z 01012KT 10SM CLR 13/01 A3032
TAF
KSAV 
21nm S 
071120Z 0712/0812 36008KT P6SM SKC FM071700 35011G17KT P6SM SKC FM072300 36005KT P6SM SKC
NOTAMs
Click for the latest NOTAMs
NOTAMs are issued by the DoD/FAA and will open in a separate window not controlled by AirNav.

 

 
 

Would you like to see your business listed on this page?

 If your business provides an interesting product or service to pilots, flight crews, aircraft, or users of the Briar Patch Airport, you should consider listing it here.  To start the listing process, click on the button below
 
Add a business
 

Other Pages about Briar Patch Airport

Update a link
 
Copyright © AirNav, LLC. All rights reserved. Privacy Policy  Contact